Location: Eaton
(41.3139°N, 82.0207°W)
Time: 13:16:17
(UTC+00:00)

GEOS 3 Rocket - Pass Details

Date: 17 June 2021
Orbit: 779 x 840 km, 115.0° (Epoch: 26 July)

Event Time Altitude Azimuth Distance (km) Brightness Sun altitude
Exits shadow 05:20:24 38° 248° (WSW) 1,250 4.4 -25.3°
Drops below altitude 10° 05:25:07 10° 309° (NW) 2,455 6.6 -25.3°
Sets 05:27:36 0° 317° (NW) 3,389 7.5 -25.3°
